This demonstration page uses our WeatherBlox Daily Observations layout. Learn more.

Left ArrowRight Arrow

39.51506, -84.39828

Hourly Observations for April 28, 2018

Temp ( °F °C ) Dew Point ( °F °C ) Humidity (%) Winds ( mph kmh ) Pressure ( in mb ) Visibility ( mi km ) Precip ( " mm )
12:15 am 00:15 Clear 42 5.5 38 3.1 85 85 Calm 29.83 1010 10 16 0.00 0.00
12:35 am 00:35 Clear 43 6.1 37 2.6 79 79 Calm 29.83 1010 10 16 0.00 0.00
12:55 am 00:55 Clear 42 5.6 37 2.5 81 81 Calm 29.83 1010 10 16 0.00 0.00
1:15 am 01:15 Mostly Cloudy 43 6.2 37 2.8 79 79 Calm 29.83 1010 10 16 0.00 0.00
1:35 am 01:35 Mostly Cloudy 44 6.6 39 3.8 83 83 Calm 29.80 1009 10 16 0.00 0.00
1:55 am 01:55 Cloudy 45 7.3 40 4.6 83 83 Calm 29.80 1009 10 16 0.00 0.00
2:15 am 02:15 Cloudy 46 7.6 40 4.5 81 81 Calm 29.80 1009 10 16 0.00 0.00
2:35 am 02:35 Cloudy 47 8.1 41 4.8 80 80 Calm 29.77 1008 10 16 0.00 0.00
2:55 am 02:55 Cloudy 48 8.9 40 4.5 74 74 W 3 6 29.77 1008 10 16 0.00 0.00
3:15 am 03:15 Cloudy 50 10 40 4.6 69 69 WSW 5 7 29.77 1008 10 16 0.00 0.00
3:35 am 03:35 Mostly Cloudy 51 10.3 40 4.2 66 66 Calm 29.77 1008 10 16 0.00 0.00
3:55 am 03:55 Partly Cloudy 51 10.7 38 3.1 60 60 WSW 6 9 29.77 1008 10 16 0.00 0.00
4:15 am 04:15 Cloudy 51 10.8 37 3 59 59 SSW 5 7 29.77 1008 10 16 0.00 0.00
4:35 am 04:35 Cloudy 49 9.5 39 3.7 67 67 SSW 5 7 29.77 1008 10 16 0.00 0.00
4:55 am 04:55 Mostly Cloudy 49 9.6 39 3.8 67 67 SW 6 9 29.77 1008 10 16 0.00 0.00
5:15 am 05:15 Clear 50 9.9 37 3 62 62 WSW 7 11 29.77 1008 10 16 0.00 0.00
5:35 am 05:35 Clear 49 9.2 37 2.9 65 65 WSW 7 11 29.77 1008 10 16 0.00 0.00
5:55 am 05:55 Clear 49 9.2 37 3 65 65 W 7 11 29.77 1008 10 16 0.00 0.00
6:15 am 06:15 Clear 49 9.3 36 2.2 61 61 NNW 10 17 29.80 1009 10 16 0.00 0.00
6:35 am 06:35 Clear 46 7.6 37 3 73 73 NNW 16 26 29.83 1010 10 16 0.00 0.00
6:55 am 06:55 Sunny 45 7.1 40 4.2 82 82 NNW 14 22 29.85 1011 10 16 0.00 0.00
7:15 am 07:15 Cloudy 45 7.3 41 4.8 84 84 NNW 14 22 29.85 1011 10 16 0.00 0.00
7:35 am 07:35 Partly Cloudy 45 7.4 41 4.9 84 84 N 8 13 29.85 1011 10 16 0.00 0.00
7:55 am 07:55 Sunny 46 7.9 41 4.8 81 81 NNW 3 6 29.85 1011 10 16 0.00 0.00
8:15 am 08:15 Cloudy 46 8 40 4.7 80 80 NNW 14 22 29.88 1012 10 16 0.00 0.00
8:35 am 08:35 Cloudy 46 7.5 40 4.4 81 81 NNW 15 24 29.91 1013 10 16 0.00 0.00
8:55 am 08:55 Cloudy 45 7 39 4 81 81 NNW 9 15 29.91 1013 10 16 0.00 0.00
9:15 am 09:15 Cloudy 44 6.9 39 3.8 81 81 NNW 12 19 29.91 1013 10 16 0.00 0.00
9:35 am 09:35 Cloudy 45 7.1 39 3.8 80 80 NNW 10 17 29.94 1014 10 16 0.00 0.00
9:55 am 09:55 Cloudy 45 7.1 39 3.9 80 80 NNW 12 19 29.94 1014 10 16 0.00 0.00
10:15 am 10:15 Cloudy 45 7.3 39 3.7 78 78 NNW 8 13 29.94 1014 10 16 0.00 0.00
10:35 am 10:35 Cloudy 45 7.3 38 3.5 77 77 NW 10 17 29.97 1015 10 16 0.00 0.00
10:55 am 10:55 Cloudy 47 8.1 38 3.6 74 74 NNW 10 17 29.97 1015 10 16 0.00 0.00
11:15 am 11:15 Cloudy 46 8 37 3 71 71 NW 8 13 29.97 1015 10 16 0.00 0.00
11:35 am 11:35 Cloudy 47 8.6 38 3.4 70 70 NNW 8 13 30.00 1016 10 16 0.00 0.00
11:55 am 11:55 Cloudy 48 8.9 38 3.5 69 69 N 10 17 30.00 1016 10 16 0.00 0.00
12:15 pm 12:15 Cloudy 49 9.3 39 3.7 68 68 NW 15 24 30.00 1016 10 16 0.00 0.00
12:35 pm 12:35 Cloudy 47 8.6 38 3.6 71 71 NNW 12 19 30.00 1016 10 16 0.00 0.00
12:55 pm 12:55 Cloudy 49 9.5 39 3.7 67 67 NNW 12 19 30.03 1017 10 16 0.00 0.00
1:15 pm 13:15 Cloudy 48 9 39 3.7 70 70 N 9 15 30.03 1017 10 16 0.00 0.00
1:35 pm 13:35 Cloudy 47 8.6 39 3.7 72 72 N 13 20 30.03 1017 10 16 0.00 0.00
1:55 pm 13:55 Cloudy 50 9.8 39 4.1 68 68 N 12 19 30.03 1017 10 16 0.00 0.00
2:15 pm 14:15 Cloudy 50 10.2 38 3.4 63 63 N 10 17 30.03 1017 10 16 0.00 0.00
2:35 pm 14:35 Cloudy 50 10.1 37 2.6 60 60 NNW 10 17 30.06 1018 10 16 0.00 0.00
2:55 pm 14:55 Mostly Cloudy 51 10.8 37 2.6 57 57 NNW 9 15 30.06 1018 10 16 0.00 0.00
3:15 pm 15:15 Cloudy 52 11.2 37 2.7 56 56 NW 6 9 30.06 1018 10 16 0.00 0.00
3:35 pm 15:35 Cloudy 53 11.5 35 1.5 51 51 NNW 10 17 30.06 1018 10 16 0.00 0.00
3:55 pm 15:55 Cloudy 55 12.7 36 2 48 48 NW 10 17 30.06 1018 10 16 0.00 0.00
4:15 pm 16:15 Mostly Cloudy 53 11.8 32 0.1 45 45 WNW 10 17 30.06 1018 10 16 0.00 0.00
4:35 pm 16:35 Cloudy 54 12.3 32 0.1 43 43 NNW 14 22 30.06 1018 10 16 0.00 0.00
4:55 pm 16:55 Mostly Cloudy 53 11.6 31 -0.7 43 43 NW 15 24 30.06 1018 10 16 0.00 0.00
5:15 pm 17:15 Mostly Cloudy 54 12.4 32 -0.2 42 42 NNW 16 26 30.06 1018 10 16 0.00 0.00
5:35 pm 17:35 Partly Cloudy 54 12.2 32 -0.2 43 43 N 13 20 30.09 1019 10 16 0.00 0.00
5:55 pm 17:55 Partly Cloudy 53 11.4 31 -0.8 43 43 NNW 14 22 30.09 1019 10 16 0.00 0.00
6:15 pm 18:15 Mostly Cloudy 53 11.9 31 -0.3 43 43 N 15 24 30.09 1019 10 16 0.00 0.00
6:35 pm 18:35 Sunny 53 11.4 30 -1.1 42 42 NNW 9 15 30.09 1019 10 16 0.00 0.00
6:55 pm 18:55 Mostly Cloudy 52 11.1 30 -1.2 43 43 N 8 13 30.09 1019 10 16 0.00 0.00
7:15 pm 19:15 Mostly Cloudy 51 10.8 30 -1.2 44 44 N 9 15 30.09 1019 10 16 0.00 0.00
7:35 pm 19:35 Partly Cloudy 50 10.1 30 -1.3 45 45 NNE 7 11 30.09 1019 10 16 0.00 0.00
7:55 pm 19:55 Partly Cloudy 49 9.2 30 -1.2 49 49 N 6 9 30.12 1020 10 16 0.00 0.00
8:15 pm 20:15 Partly Cloudy 49 9.4 29 -1.5 47 47 N 3 6 30.12 1020 10 16 0.00 0.00
8:35 pm 20:35 Partly Cloudy 48 9.1 31 -0.4 52 52 Calm 30.12 1020 10 16 0.00 0.00
8:55 pm 20:55 Mostly Cloudy 47 8.5 35 1.5 62 62 Calm 30.12 1020 10 16 0.00 0.00
9:15 pm 21:15 Mostly Cloudy 43 6.3 37 2.9 79 79 Calm 30.12 1020 10 16 0.00 0.00
9:35 pm 21:35 Mostly Cloudy 43 6.2 36 2.3 76 76 Calm 30.15 1021 10 16 0.00 0.00
9:55 pm 21:55 Cloudy 42 5.8 36 2.1 77 77 WNW 3 6 30.15 1021 10 16 0.00 0.00
10:15 pm 22:15 Clear 41 4.8 35 1.6 80 80 WNW 5 7 30.18 1022 10 16 0.00 0.00
10:35 pm 22:35 Clear 44 6.9 30 -1.1 57 57 NNW 6 9 30.15 1021 10 16 0.00 0.00
10:55 pm 22:55 Clear 44 6.6 28 -2.1 54 54 NNW 6 9 30.18 1022 10 16 0.00 0.00
11:15 pm 23:15 Clear 43 6 28 -2.2 56 56 NW 6 9 30.18 1022 10 16 0.00 0.00
11:35 pm 23:35 Clear 43 6.1 26 -3.5 51 51 NNW 9 15 30.18 1022 10 16 0.00 0.00
11:55 pm 23:55 Clear 43 6.1 23 -5.2 45 45 NNW 9 15 30.18 1022 10 16 0.00 0.00

Powered by AerisWeather